Weather History for KPIL - October, 2013

Change the Weather History Date:

Sunday, October 13, 2013

  Actual Average Record
Temperature  
Mean Temperature 84 °F -  
Max Temperature 89 °F - - ()
Min Temperature 78 °F - - ()
Cooling Degree Days 18    
Growing Degree Days 34 (Base 50)    
Moisture  
Dew Point 75 °F    
Average Humidity 78    
Maximum Humidity 94    
Minimum Humidity 59    
Precipitation  
Precipitation 0.00 in - - ()
Sea Level Pressure  
Sea Level Pressure 30.01 in    
Wind  
Wind Speed 11 mph (SE)    
Max Wind Speed 18 mph    
Max Gust Speed 24 mph    
Visibility 9 miles    
Events      
T = Trace of Precipitation, MM = Missing Value Source: NWS Daily Summary

Daily Weather History Graph

Daily Weather History Graph

Search for Another Location

Airport or City:

Trip Planner

Search our weather history database for the weather conditions in past years. The results will help you decide how hot, cold, wet, or windy it might be!

Date:

Astronomy

Oct. 13, 2013 Rise Set
Actual Time 7:27 AM CDT 7:03 PM CDT
Civil Twilight 7:04 AM CDT 7:26 PM CDT
Nautical Twilight 6:37 AM CDT 7:53 PM CDT
Astronomical Twilight 6:10 AM CDT 8:19 PM CDT
Moon 3:28 PM CDT (10/13) 2:09 AM CDT (10/13)
Length of Visible Light 12h 22m
Length of Day
11h 35m
Waxing Gibbous, 69% of the Moon is Illuminated
Oct 13
Waxing Gibbous
Oct 18
Full
Oct 26
Last Quarter
Nov 3
New
Nov 9
First Quarter

Hourly Weather History & Observations

Time (CDT) Temp. Heat Index Dew Point Humidity Pressure Visibility Wind Dir Wind Speed Gust Speed Precip Events Conditions
12:53 AM 80.1 °F 85.8 °F 77.0 °F 90% 29.99 in 9.0 mi SE 9.2 mph - N/A   Partly Cloudy
1:53 AM 79.0 °F - 77.0 °F 94% 29.99 in 9.0 mi SSE 8.1 mph - N/A   Partly Cloudy
2:53 AM 79.0 °F - 75.9 °F 90% 29.98 in 9.0 mi SSE 6.9 mph - N/A   Clear
3:53 AM 79.0 °F - 75.9 °F 90% 29.98 in 9.0 mi SSE 8.1 mph - N/A   Clear
4:53 AM 78.1 °F - 75.9 °F 93% 29.98 in 9.0 mi SE 6.9 mph - N/A   Clear
5:53 AM 78.1 °F - 75.9 °F 93% 30.00 in 9.0 mi SSE 6.9 mph - N/A   Clear
6:53 AM 78.1 °F - 75.9 °F 93% 30.00 in 8.0 mi SSE 6.9 mph - N/A   Clear
7:53 AM 78.1 °F - 75.9 °F 93% 30.02 in 7.0 mi SSE 5.8 mph - N/A   Clear
8:53 AM 81.0 °F 87.3 °F 75.9 °F 85% 30.04 in 8.0 mi SSE 10.4 mph - N/A   Clear
9:53 AM 84.0 °F 91.9 °F 75.0 °F 74% 30.06 in 8.0 mi SE 12.7 mph - N/A   Scattered Clouds
10:53 AM 86.0 °F 95.1 °F 75.0 °F 70% 30.07 in 9.0 mi SE 16.1 mph 21.9 mph N/A   Scattered Clouds
11:53 AM 88.0 °F 96.5 °F 73.9 °F 63% 30.06 in 9.0 mi SE 15.0 mph - N/A   Partly Cloudy
12:53 PM 88.0 °F 96.5 °F 73.9 °F 63% 30.04 in 9.0 mi SE 15.0 mph - N/A   Partly Cloudy
1:53 PM 89.1 °F 97.0 °F 73.0 °F 59% 30.00 in 9.0 mi SE 18.4 mph 23.0 mph N/A   Partly Cloudy
2:53 PM 88.0 °F 95.6 °F 73.0 °F 61% 29.98 in 9.0 mi SE 17.3 mph 24.2 mph N/A   Clear
3:53 PM 88.0 °F 95.6 °F 73.0 °F 61% 29.96 in 9.0 mi SE 18.4 mph - N/A   Clear
4:53 PM 87.1 °F 93.6 °F 72.0 °F 61% 29.96 in 9.0 mi SSE 16.1 mph - N/A   Clear
5:53 PM 84.9 °F 90.7 °F 72.0 °F 65% 29.96 in 9.0 mi SSE 15.0 mph - N/A   Clear
6:53 PM 82.9 °F 88.0 °F 72.0 °F 69% 29.99 in 9.0 mi SE 12.7 mph - N/A   Clear
7:53 PM 81.0 °F 86.7 °F 75.0 °F 82% 30.00 in 10.0 mi SE 13.8 mph - N/A   Partly Cloudy
8:53 PM 81.0 °F 86.7 °F 75.0 °F 82% 30.01 in 10.0 mi SE 12.7 mph - N/A   Partly Cloudy
9:53 PM 81.0 °F 86.2 °F 73.9 °F 79% 30.02 in 10.0 mi SE 15.0 mph - N/A   Partly Cloudy
10:53 PM 81.0 °F 85.8 °F 73.0 °F 77% 30.02 in 10.0 mi SE 15.0 mph - N/A   Clear
11:53 PM 80.1 °F 84.2 °F 73.0 °F 79% 30.01 in 10.0 mi SE 13.8 mph - N/A   Clear